| time (UTC) | temp C | wind direction | speed KPH | gust KPH | rain 1hr cm | rain 24hr cm | rain mn cm | humidity % | barometer mb |
| 20260906224510 | 21 | 162 | 1.6 | 4.8 | 0.00 | 0.10 | 0.10 | 55 | 1010.3 |
| 20260906223009 | 21 | 162 | 1.6 | 4.8 | 0.00 | 0.10 | 0.10 | 53 | 1010.2 |
| 20260906221517 | 21 | 162 | 1.6 | 8.0 | 0.00 | 0.10 | 0.10 | 54 | 1010.5 |
| 20260906220018 | 22 | 162 | 1.6 | 6.4 | 0.00 | 0.10 | 0.10 | 51 | 1010.5 |
| 20260906214504 | 22 | 162 | 3.2 | 12.9 | 0.00 | 0.10 | 0.10 | 50 | 1010.9 |
| 20260906213112 | 22 | 162 | 3.2 | 8.0 | 0.00 | 0.10 | 0.10 | 50 | 1011.3 |
| 20260906211611 | 22 | 162 | 1.6 | 4.8 | 0.00 | 0.10 | 0.10 | 51 | 1011.5 |
| 20260906210106 | 22 | 162 | 1.6 | 8.0 | 0.00 | 0.10 | 0.10 | 51 | 1011.8 |
| 20260906204602 | 21 | 162 | 0.0 | 6.4 | 0.00 | 0.10 | 0.10 | 50 | 1011.9 |
| 20260906203053 | 21 | 162 | 1.6 | 8.0 | 0.00 | 0.10 | 0.10 | 56 | 1012.2 |
| 20260906201606 | 20 | 162 | 1.6 | 8.0 | 0.00 | 0.10 | 0.10 | 57 | 1012.5 |
| 20260906200045 | 18 | 162 | 0.0 | 4.8 | 0.00 | 0.10 | 0.10 | 61 | 1012.7 |
| 20260906194542 | 18 | 162 | 0.0 | 6.4 | 0.00 | 0.10 | 0.10 | 60 | 1013.0 |
| 20260906193040 | 18 | 162 | 0.0 | 3.2 | 0.00 | 0.10 | 0.10 | 60 | 1013.1 |
| 20260906191538 | 17 | 162 | 1.6 | 4.8 | 0.00 | 0.10 | 0.10 | 60 | 1013.4 |
| 20260906190042 | 17 | 162 | 0.0 | 4.8 | 0.00 | 0.10 | 0.10 | 61 | 1013.7 |
| 20260906184532 | 18 | 162 | 0.0 | 1.6 | 0.00 | 0.10 | 0.10 | 64 | 1014.0 |
| 20260906183045 | 17 | 162 | 0.0 | 3.2 | 0.00 | 0.10 | 0.10 | 69 | 1014.4 |
| 20260906181525 | 17 | 162 | 0.0 | 3.2 | 0.00 | 0.10 | 0.10 | 68 | 1014.6 |
| 20260906180022 | 16 | 162 | 0.0 | 4.8 | 0.00 | 0.10 | 0.10 | 70 | 1014.9 |
| 20260906174519 | 15 | 162 | 0.0 | 3.2 | 0.00 | 0.10 | 0.10 | 73 | 1015.0 |
| 20260906173018 | 15 | 162 | 1.6 | 4.8 | 0.00 | 0.10 | 0.10 | 73 | 1015.3 |
| 20260906171520 | 15 | 162 | 0.0 | 3.2 | 0.00 | 0.10 | 0.10 | 75 | 1015.3 |
| 20260906170014 | 15 | 162 | 0.0 | 3.2 | 0.00 | 0.10 | 0.10 | 77 | 1015.5 |
| 20260906164512 | 14 | 162 | 0.0 | 3.2 | 0.00 | 0.10 | 0.10 | 78 | 1015.5 |
| 20260906163011 | 13 | 162 | 0.0 | 0.0 | 0.00 | 0.10 | 0.10 | 80 | 1015.6 |
| 20260906161503 | 12 | 162 | 0.0 | 1.6 | 0.00 | 0.10 | 0.10 | 86 | 1015.9 |
| 20260906160100 | 12 | 162 | 0.0 | 0.0 | 0.00 | 0.10 | 0.10 | 89 | 1016.0 |
| 20260906154558 | 11 | 162 | 0.0 | 1.6 | 0.00 | 0.10 | 0.10 | 89 | 1016.2 |
| 20260906153058 | 11 | 162 | 0.0 | 1.6 | 0.00 | 0.10 | 0.10 | 91 | 1016.3 |
| 20260906151554 | 11 | 162 | 0.0 | 0.0 | 0.00 | 0.10 | 0.10 | 90 | 1016.3 |
| 20260906150056 | 11 | 162 | 0.0 | 0.0 | 0.00 | 0.10 | 0.10 | 91 | 1016.5 |
| 20260906144554 | 10 | 162 | 0.0 | 1.6 | 0.00 | 0.10 | 0.10 | 93 | 1016.5 |
| 20260906143050 | 10 | 162 | 0.0 | 0.0 | 0.00 | 0.10 | 0.10 | 94 | 1016.7 |
| 20260906141549 | 9 | 162 | 0.0 | 1.6 | 0.00 | 0.10 | 0.10 | 94 | 1016.6 |
| 20260906140045 | 9 | 162 | 0.0 | 1.6 | 0.00 | 0.10 | 0.10 | 94 | 1016.8 |
| 20260906134548 | 8 | 162 | 0.0 | 0.0 | 0.00 | 0.10 | 0.10 | 94 | 1016.8 |
| 20260906133046 | 8 | 162 | 0.0 | 0.0 | 0.00 | 0.10 | 0.10 | 94 | 1016.7 |
| 20260906131543 | 8 | 162 | 0.0 | 0.0 | 0.00 | 0.10 | 0.10 | 94 | 1016.7 |
| 20260906130049 | 8 | 162 | 0.0 | 0.0 | 0.00 | 0.10 | 0.10 | 93 | 1016.7 |
| 20260906124541 | 8 | 161 | 0.0 | 1.6 | 0.10 | 0.10 | 0.10 | 93 | 1016.9 |
| 20260906123042 | 8 | 162 | 0.0 | 0.0 | 0.10 | 0.10 | 0.10 | 92 | 1016.9 |
| 20260906121543 | 8 | 162 | 0.0 | 0.0 | 0.10 | 0.10 | 0.10 | 91 | 1016.8 |
| 20260906120038 | 8 | 162 | 0.0 | 1.6 | 0.10 | 0.10 | 0.10 | 90 | 1016.9 |
| 20260906114550 | 8 | 162 | 0.0 | 6.4 | 0.00 | 0.00 | 0.00 | 89 | 1017.2 |
| 20260906113049 | 8 | 162 | 0.0 | 3.2 | 0.00 | 0.00 | 0.00 | 89 | 1016.8 |
| 20260906111535 | 9 | 162 | 0.0 | 3.2 | 0.00 | 0.00 | 0.00 | 84 | 1016.7 |
| 20260906110033 | 9 | 162 | 0.0 | 3.2 | 0.00 | 0.00 | 0.00 | 86 | 1017.1 |
| 20260906104533 | 9 | 162 | 0.0 | 1.6 | 0.00 | 0.00 | 0.00 | 82 | 1016.8 |
| 20260906103033 | 8 | 162 | 0.0 | 0.0 | 0.00 | 0.00 | 0.00 | 83 | 1017.1 |
| 20260906101532 | 9 | 162 | 0.0 | 1.6 | 0.00 | 0.00 | 0.00 | 81 | 1017.2 |
| 20260906100030 | 10 | 162 | 0.0 | 4.8 | 0.00 | 0.00 | 0.00 | 78 | 1017.0 |
| 20260906094527 | 9 | 161 | 0.0 | 1.6 | 0.00 | 0.00 | 0.00 | 81 | 1017.3 |
| 20260906093027 | 8 | 162 | 0.0 | 1.6 | 0.00 | 0.00 | 0.00 | 83 | 1017.5 |
| 20260906091533 | 8 | 162 | 0.0 | 3.2 | 0.00 | 0.00 | 0.00 | 83 | 1017.1 |
| 20260906090028 | 8 | 161 | 0.0 | 0.0 | 0.00 | 0.00 | 0.00 | 84 | 1017.0 |
| 20260906084526 | 7 | 162 | 0.0 | 0.0 | 0.00 | 0.00 | 0.00 | 87 | 1017.6 |
| 20260906083023 | 7 | 162 | 0.0 | 1.6 | 0.00 | 0.00 | 0.00 | 85 | 1017.4 |
| 20260906081535 | 7 | 161 | 0.0 | 1.6 | 0.00 | 0.00 | 0.00 | 83 | 1017.0 |
| 20260906080018 | 8 | 162 | 0.0 | 3.2 | 0.00 | 0.00 | 0.00 | 81 | 1017.0 |
| 20260906074520 | 9 | 162 | 0.0 | 0.0 | 0.00 | 0.00 | 0.00 | 81 | 1017.2 |
| 20260906073015 | 9 | 162 | 0.0 | 0.0 | 0.00 | 0.00 | 0.00 | 82 | 1017.6 |
| 20260906071514 | 8 | 162 | 0.0 | 0.0 | 0.00 | 0.00 | 0.00 | 83 | 1017.7 |
| 20260906070013 | 8 | 162 | 0.0 | 0.0 | 0.00 | 0.00 | 0.00 | 82 | 1017.5 |
| 20260906064511 | 9 | 162 | 0.0 | 0.0 | 0.00 | 0.00 | 0.00 | 80 | 1017.5 |
| 20260906063008 | 8 | 161 | 0.0 | 0.0 | 0.00 | 0.00 | 0.00 | 82 | 1017.3 |
| 20260906061508 | 8 | 161 | 0.0 | 1.6 | 0.00 | 0.00 | 0.00 | 82 | 1017.3 |
| 20260906060014 | 8 | 162 | 0.0 | 0.0 | 0.00 | 0.00 | 0.00 | 81 | 1017.4 |
| 20260906054505 | 8 | 162 | 0.0 | 1.6 | 0.00 | 0.00 | 0.00 | 81 | 1017.4 |
| 20260906053010 | 9 | 162 | 0.0 | 1.6 | 0.00 | 0.00 | 0.00 | 79 | 1017.3 |
| 20260906051505 | 10 | 162 | 0.0 | 0.0 | 0.00 | 0.00 | 0.00 | 78 | 1017.3 |
| 20260906050013 | 10 | 161 | 0.0 | 1.6 | 0.00 | 0.00 | 0.00 | 76 | 1017.2 |
| 20260906044503 | 11 | 162 | 0.0 | 1.6 | 0.00 | 0.00 | 0.00 | 74 | 1017.2 |
| 20260906043003 | 11 | 162 | 0.0 | 1.6 | 0.00 | 0.00 | 0.00 | 76 | 1017.1 |
| 20260906041502 | 11 | 162 | 0.0 | 0.0 | 0.00 | 0.00 | 0.00 | 73 | 1017.0 |
| 20260906040002 | 12 | 162 | 0.0 | 1.6 | 0.00 | 0.00 | 0.00 | 67 | 1016.9 |
| 20260906034600 | 12 | 162 | 0.0 | 4.8 | 0.00 | 0.00 | 0.00 | 68 | 1016.8 |
| 20260906033100 | 12 | 161 | 0.0 | 1.6 | 0.00 | 0.00 | 0.00 | 67 | 1016.8 |
| 20260906031604 | 14 | 162 | 1.6 | 9.7 | 0.00 | 0.00 | 0.00 | 59 | 1016.6 |
| 20260906030058 | 14 | 162 | 0.0 | 4.8 | 0.00 | 0.00 | 0.00 | 62 | 1016.3 |
| 20260906024557 | 15 | 162 | 0.0 | 1.6 | 0.00 | 0.00 | 0.00 | 60 | 1016.2 |
| 20260906023059 | 16 | 162 | 0.0 | 3.2 | 0.00 | 0.00 | 0.00 | 55 | 1016.0 |
| 20260906021556 | 16 | 162 | 0.0 | 0.0 | 0.00 | 0.00 | 0.00 | 52 | 1015.9 |
| 20260906014555 | 20 | 162 | 1.6 | 4.8 | 0.00 | 0.00 | 0.00 | 41 | 1015.5 |
| 20260906013054 | 21 | 161 | 1.6 | 9.7 | 0.00 | 0.00 | 0.00 | 38 | 1015.4 |
| 20260906011552 | 21 | 162 | 3.2 | 8.0 | 0.00 | 0.00 | 0.00 | 37 | 1015.2 |
| 20260906010052 | 22 | 162 | 1.6 | 9.7 | 0.00 | 0.00 | 0.00 | 37 | 1015.3 |
| 20260906004552 | 22 | 162 | 3.2 | 9.7 | 0.00 | 0.00 | 0.00 | 35 | 1015.2 |
| 20260906003050 | 22 | 162 | 1.6 | 6.4 | 0.00 | 0.00 | 0.00 | 37 | 1015.1 |
| 20260906001549 | 22 | 162 | 3.2 | 9.7 | 0.00 | 0.00 | 0.00 | 36 | 1015.2 |
| 20260906000048 | 22 | 162 | 0.0 | 4.8 | 0.00 | 0.00 | 0.00 | 37 | 1015.2 |
| 20260905234546 | 22 | 162 | 0.0 | 3.2 | 0.00 | 0.00 | 0.00 | 38 | 1015.4 |
| 20260905233048 | 22 | 161 | 1.6 | 4.8 | 0.00 | 0.00 | 0.00 | 36 | 1015.6 |
| 20260905231544 | 22 | 162 | 3.2 | 6.4 | 0.00 | 0.00 | 0.00 | 36 | 1015.7 |
| 20260905230049 | 22 | 162 | 3.2 | 6.4 | 0.00 | 0.00 | 0.00 | 35 | 1015.8 |